{"data":{"norad_id":55617,"intl_designator":"2023-020BA","name":"STARLINK-5721","alt_names":[],"object_type":"PAYLOAD","status":"ACTIVE","operator":null,"country":"US","launch_date":"2023-02-12","launch_site_code":"AFETR","launch_vehicle":null,"mission":null,"orbit_class":"UNKNOWN","rcs_meters":null,"size_class":null,"mass_kg":null,"dimensions":null,"purposes":["comms"],"wikipedia_slug":null,"has_3d_model":false,"image_url":null,"decayed_at":null,"tle_current":{"epoch":"2026-09-20T11:36:24.780960Z","epoch_age_seconds":101854,"freshness":"FRESH","line1":"1 55617U 23020BA  26263.48362015  .00000234  00000+0  18046-4 0  9990","line2":"2 55617  43.0014 333.8705 0001303 272.8281  87.2422 15.27576562198834","mean_motion":15.27576562,"eccentricity":0.0001303,"inclination_deg":43.0014,"raan_deg":333.8705,"arg_perigee_deg":272.8281,"mean_anomaly_deg":87.2422,"bstar":1.8046e-5,"rev_number":19883,"period_min":94.26696087263,"perigee_km":482.16537677807,"apogee_km":483.95340455748,"semimajor_km":6861.1963906678,"source":"CELESTRAK","updated_at":"2026-09-21T09:00:33.276328Z"}}}